Location: Feudal
(51.8839°N, 107.6105°W)
Time: 04:08:12
(UTC+00:00)

Envisat - Pass Details

Date: 28 January 2022
Orbit: 764 x 765 km, 98.2° (Epoch: 25 May)

Event Time Altitude Azimuth Distance (km) Brightness Sun altitude
Rises 11:22:01 0° 21° (NNE) 3,245 6.7 -32.8°
Reaches altitude 10° 11:24:34 10° 31° (NNE) 2,314 5.9 -32.4°
Maximum altitude 11:29:08 32° 94° (E) 1,292 4.6 -31.7°
Drops below altitude 10° 11:33:39 10° 158° (SSE) 2,299 5.6 -31.0°
Sets 11:36:11 0° 168° (SSE) 3,220 6.3 -30.6°
